カタログに戻る

FENGYUN 1C DEB *

運用中PO
NORAD 47041·DEBRIS·🇨🇳 China

打ち上げ May 10, 1999 から Taiyuan Satellite Launch Center

Loading…

次のパス (今後24時間)

TLE

経年Source: Space-Track

元期: Sep 8, 2026, 09:55 UTC

1 47041U 99025FBT 26251.41362044  .00080991  00000-0  26092-2 0  9999
2 47041  98.2257 307.0156 0006163 354.9479   5.1697 15.31857379752821

AllMySatでFENGYUN 1C DEB *をリアルタイム追跡

Download on the App Store